TimeEDT,TemperatureF,Dew PointF,Humidity,Sea Level PressureIn,VisibilityMPH,Wind Direction,Wind SpeedMPH,Gust SpeedMPH,PrecipitationIn,Events,Conditions,WindDirDegrees,DateUTC
12:11 AM,60.1,55.9,86,29.72,10.0,SSW,5.8,-,N/A,,Mostly Cloudy,210,2013-11-02 04:11:00
12:49 AM,60.8,57.2,88,29.72,10.0,SW,6.9,-,N/A,,Overcast,230,2013-11-02 04:49:00
12:54 AM,60.1,57.0,90,29.71,10.0,SW,5.8,-,N/A,,Overcast,230,2013-11-02 04:54:00
1:13 AM,60.1,57.0,90,29.72,10.0,SW,5.8,-,N/A,,Overcast,230,2013-11-02 05:13:00
1:54 AM,59.0,55.9,90,29.70,10.0,SW,6.9,-,N/A,,Mostly Cloudy,230,2013-11-02 05:54:00
2:54 AM,57.9,55.9,93,29.70,7.0,Calm,Calm,-,N/A,,Overcast,0,2013-11-02 06:54:00
3:02 AM,57.9,55.9,93,29.72,7.0,West,3.5,-,N/A,,Overcast,270,2013-11-02 07:02:00
3:54 AM,57.9,55.0,90,29.72,6.0,SW,3.5,-,N/A,,Mostly Cloudy,230,2013-11-02 07:54:00
4:01 AM,57.0,55.0,93,29.73,5.0,SW,3.5,-,N/A,,Mostly Cloudy,220,2013-11-02 08:01:00
4:26 AM,57.0,55.0,93,29.74,1.5,Calm,Calm,-,N/A,,Partly Cloudy,0,2013-11-02 08:26:00
4:28 AM,57.0,55.0,93,29.74,0.8,Calm,Calm,-,N/A,,Scattered Clouds,0,2013-11-02 08:28:00
4:37 AM,55.9,54.0,93,29.74,0.2,Calm,Calm,-,N/A,Fog,Fog,0,2013-11-02 08:37:00
4:51 AM,55.4,53.6,94,29.73,0.2,Calm,Calm,-,N/A,Fog,Fog,0,2013-11-02 08:51:00
4:54 AM,54.0,52.0,93,29.73,0.2,Calm,Calm,-,N/A,Fog,Fog,0,2013-11-02 08:54:00
5:02 AM,54.0,52.0,93,29.74,0.2,West,3.5,-,N/A,Fog,Fog,260,2013-11-02 09:02:00
5:54 AM,53.1,51.1,93,29.74,0.2,West,3.5,-,N/A,Fog,Fog,260,2013-11-02 09:54:00
6:54 AM,55.0,53.1,93,29.75,0.2,West,5.8,-,N/A,Fog,Fog,270,2013-11-02 10:54:00
7:54 AM,54.0,52.0,93,29.76,0.2,West,4.6,-,N/A,Fog,Fog,270,2013-11-02 11:54:00
8:54 AM,53.1,51.1,93,29.80,0.2,WSW,3.5,-,N/A,Fog,Fog,240,2013-11-02 12:54:00
9:30 AM,54.0,53.1,97,29.81,1.0,Calm,Calm,-,N/A,,Mist,0,2013-11-02 13:30:00
9:36 AM,54.0,52.0,93,29.81,3.0,Calm,Calm,-,N/A,,Mostly Cloudy,0,2013-11-02 13:36:00
9:47 AM,54.0,52.0,93,29.82,10.0,WSW,4.6,-,N/A,,Scattered Clouds,250,2013-11-02 13:47:00
9:54 AM,54.0,52.0,93,29.82,10.0,West,4.6,-,N/A,,Partly Cloudy,260,2013-11-02 13:54:00
10:54 AM,62.1,51.1,67,29.80,10.0,WSW,4.6,-,N/A,,Clear,250,2013-11-02 14:54:00
11:54 AM,66.0,42.1,42,29.79,10.0,West,13.8,-,N/A,,Clear,270,2013-11-02 15:54:00
12:54 PM,68.0,41.0,37,29.78,10.0,West,12.7,18.4,N/A,,Clear,260,2013-11-02 16:54:00
1:54 PM,70.0,39.0,32,29.75,10.0,West,10.4,-,N/A,,Clear,270,2013-11-02 17:54:00
2:54 PM,69.1,37.9,32,29.75,10.0,West,12.7,18.4,N/A,,Scattered Clouds,260,2013-11-02 18:54:00
3:54 PM,69.1,37.9,32,29.74,10.0,WSW,10.4,-,N/A,,Partly Cloudy,250,2013-11-02 19:54:00
4:54 PM,66.9,37.0,33,29.75,10.0,West,9.2,-,N/A,,Overcast,280,2013-11-02 20:54:00
5:54 PM,57.9,44.1,60,29.79,10.0,South,3.5,-,0.01,,Overcast,170,2013-11-02 21:54:00
6:54 PM,55.9,45.0,67,29.81,10.0,SW,4.6,-,N/A,,Partly Cloudy,230,2013-11-02 22:54:00
7:54 PM,55.0,45.0,69,29.84,10.0,WSW,5.8,-,N/A,,Scattered Clouds,240,2013-11-02 23:54:00
8:54 PM,55.0,41.0,59,29.88,10.0,West,4.6,-,N/A,,Clear,270,2013-11-03 00:54:00
9:54 PM,55.9,35.1,45,29.90,10.0,NW,8.1,-,N/A,,Clear,310,2013-11-03 01:54:00
10:54 PM,54.0,33.1,45,29.93,10.0,NW,6.9,-,N/A,,Clear,310,2013-11-03 02:54:00
11:54 PM,53.1,32.0,45,29.96,10.0,NW,8.1,-,N/A,,Clear,320,2013-11-03 03:54:00